XML Sitemap

This is a XML Sitemap which is supposed to be processed by search engines which follow the XML Sitemap standard like Ask.com, Bing, Google and Yahoo.
It was generated using the WordPress content management system and the Google Sitemap Generator Plugin by Arne Brachhold.
You can find more information about XML sitemaps on sitemaps.org and Google's list of sitemap programs.

URLPriorityChange frequencyLast modified (GMT)
https://100frames.com/30-free-printable-calendar-net-october-2019/50%Daily2019-03-10 08:00
https://100frames.com/34-create-calendar-event/50%Daily2019-03-10 07:59
https://100frames.com/35-daily-calendar-july-2019/50%Daily2019-03-10 07:57
https://100frames.com/31-printable-calendar-january-and-february-2019/50%Daily2019-03-10 07:55
https://100frames.com/30-free-printable-weekly-calendar-with-time-slots-2019/50%Daily2019-03-10 07:54
https://100frames.com/35-august-sept-2019-calendar/50%Daily2019-03-10 07:52
https://100frames.com/31-online-printable-2019-calendar-december-colorfull/50%Daily2019-03-10 07:50
https://100frames.com/30-black-gold-printable-calendar/50%Daily2019-03-10 07:49
https://100frames.com/34-day-fix-extreme-calendar/50%Daily2019-03-10 07:47
https://100frames.com/4-aspca-calendar-2019-2020/50%Daily2019-03-10 07:45
https://100frames.com/33-google-calendar-template/50%Daily2019-03-10 07:45
https://100frames.com/23-free-printable-17-18-calendar-with-holidays/50%Daily2019-03-10 07:44
https://100frames.com/31-calendar-2019-may-and-june/50%Daily2019-03-10 07:41
https://100frames.com/31-free-printable-2019-employee-attendance-calendar/50%Daily2019-03-10 07:41
https://100frames.com/30-free-printable-weekly-calendar-monday-to-friday/50%Daily2019-03-10 07:39
https://100frames.com/30-printable-monthly-holiday-calendar-legal-size/50%Daily2019-03-10 07:37
https://100frames.com/30-free-calendar-agenda-printable/50%Daily2019-03-10 07:35
https://100frames.com/35-12-month-printable-calendar-2019-one-page/50%Daily2019-03-10 07:35
https://100frames.com/30-printable-monthly-calendar-2019-decorations/50%Daily2019-03-10 07:32
https://100frames.com/33-february-2019-calendar-to-print/50%Daily2019-03-10 07:30
https://100frames.com/35-september-2019-printable-calendar/50%Daily2019-03-10 07:30
https://100frames.com/30-save-the-date-printable-calendar/50%Daily2019-03-10 07:28
https://100frames.com/30-large-printable-september-calendar/50%Daily2019-03-10 07:25
https://100frames.com/32-printable-labeled-calendar/50%Daily2019-03-10 07:25
https://100frames.com/34-printable-blank-calendars-org/50%Daily2019-03-10 07:23
https://100frames.com/32-new-york-calendar-february-2019/50%Daily2019-03-10 07:21
https://100frames.com/35-free-printable-blank-calendar/50%Daily2019-03-10 07:20
https://100frames.com/35-single-page-printable-calendar/50%Daily2019-03-10 07:18
https://100frames.com/30-printable-calendar-for-1943/50%Daily2019-03-10 07:16
https://100frames.com/35-paint-sample-calendar/50%Daily2019-03-10 07:15
https://100frames.com/21-large-print-calendar-2019-printable-3-2-653-4150236-0/50%Daily2019-03-10 07:14
https://100frames.com/32-december-calendar-events/50%Daily2019-03-10 07:12
https://100frames.com/30-feb-2019-calendar-template/50%Daily2019-03-10 07:10
https://100frames.com/34-bourbon-advent-calendar-2019/50%Daily2019-03-10 07:10
https://100frames.com/34-calendar-sheets-2019-printable-for-planner/50%Daily2019-03-10 07:06
https://100frames.com/33-orange-circle-studio-calendars/50%Daily2019-03-10 07:06
https://100frames.com/32-calendar-for-2019-printable-philippines/50%Daily2019-03-10 07:04
https://100frames.com/21-calendar-for-january-and-february-2019/50%Daily2019-03-10 07:01
https://100frames.com/34-www-free-printable-calendar-net-2019/50%Daily2019-03-10 07:01
https://100frames.com/31-printable-daily-calendar-half-pages/50%Daily2019-03-10 06:59
https://100frames.com/35-augusta-county-school-calendar/50%Daily2019-03-10 06:57
https://100frames.com/31-half-marathon-calendar-2019/50%Daily2019-03-10 06:55
https://100frames.com/35-chick-fil-a-calendar/50%Daily2019-03-10 06:55
https://100frames.com/31-free-printable-april-2019-calendar-template/50%Daily2019-03-10 06:53
https://100frames.com/30-blank-june-monthly-calendar/50%Daily2019-03-10 06:50
https://100frames.com/31-free-printable-chore-calendar/50%Daily2019-03-10 06:51
https://100frames.com/33-online-printable-calendar-incompetech/50%Daily2019-03-10 06:48
https://100frames.com/33-2019-calendar-blank-free-printable/50%Daily2019-03-10 06:45
https://100frames.com/34-hardin-county-schools-calendar-2019-18/50%Daily2019-03-10 06:46
https://100frames.com/20-colorful-august-2019-printable-calendar/50%Daily2019-03-10 06:43
https://100frames.com/34-aisd-calendar-2019-2020-2019/50%Daily2019-03-10 06:41
https://100frames.com/34-free-printable-calendar-pieces-for-preschool/50%Daily2019-03-10 06:40
https://100frames.com/34-2020-calendar/50%Daily2019-03-10 06:38
https://100frames.com/33-printable-brodhead-district-calendar/50%Daily2019-03-10 06:35
https://100frames.com/31-http-www-calendarlabs-com-printable-calendar-php/50%Daily2019-03-10 06:35
https://100frames.com/30-printable-march-april-2019-calendar/50%Daily2019-03-10 06:33
https://100frames.com/30-printable-february-calendar-for-2019/50%Daily2019-03-10 06:31
https://100frames.com/32-calendar-december-2019-to-january-2019/50%Daily2019-03-10 06:31
https://100frames.com/33-november-2019-calendar-printable-excel/50%Daily2019-03-10 06:28
https://100frames.com/35-2019-monthly-calendar-word/50%Daily2019-03-10 06:26
https://100frames.com/31-awesome-sample-weekly-calendar-schedule-printable/50%Daily2019-03-10 06:25
https://100frames.com/31-june-to-august-2019-calendar/50%Daily2019-03-10 06:24
https://100frames.com/30-december-calendar-print-out/50%Daily2019-03-10 06:22
https://100frames.com/33-printable-meal-calendar-2019/50%Daily2019-03-10 06:20
https://100frames.com/34-printable-dinner-calendar/50%Daily2019-03-10 06:20
https://100frames.com/31-april-monthly-calendar-2019/50%Daily2019-03-10 06:17
https://100frames.com/34-due-date-calendar-printable/50%Daily2019-03-10 06:15
https://100frames.com/26-calendar-may-june-printable/50%Daily2019-03-10 06:15
https://100frames.com/35-calendar-printable-2019-philippines/50%Daily2019-03-10 06:14
https://100frames.com/29-mnps-calendar-2019-2020/50%Daily2019-03-10 06:11
https://100frames.com/22-printable-calendar-months-2019-canada/50%Daily2019-03-10 06:10
https://100frames.com/35-2019-may-december-calendar-printable/50%Daily2019-03-10 06:08
https://100frames.com/30-free-sea-life-theme-2019-printable-calendar/50%Daily2019-03-10 06:06
https://100frames.com/31-printable-monthly-calendar-pinterest/50%Daily2019-03-10 06:05
https://100frames.com/33-free-printable-calendar-makers/50%Daily2019-03-10 06:03
https://100frames.com/30-dallas-cowboys-cheerleaders-2019-calendar/50%Daily2019-03-10 06:02
https://100frames.com/35-2019-family-calendar-printable/50%Daily2019-03-10 06:01
https://100frames.com/32-free-easy-printable-calendars/50%Daily2019-03-10 05:59
https://100frames.com/25-printable-august-september-calendar-2019/50%Daily2019-03-10 05:57
https://100frames.com/30-printable-calendar-worksheets/50%Daily2019-03-10 05:55
https://100frames.com/32-april-2019-calendar-with-holidays/50%Daily2019-03-10 05:55
https://100frames.com/33-fun-student-printable-calendars/50%Daily2019-03-10 05:53
https://100frames.com/30-calendar-refills-2019/50%Daily2019-03-10 05:51
https://100frames.com/35-printable-calendar-templets/50%Daily2019-03-10 05:51
https://100frames.com/34-printable-blank-appointment-calendar/50%Daily2019-03-10 05:49
https://100frames.com/24-august-2019-free-printable-calendar-small/50%Daily2019-03-10 05:47
https://100frames.com/31-printable-20-year-calendar/50%Daily2019-03-10 05:45
https://100frames.com/33-december-1-2019-calendar/50%Daily2019-03-10 05:46
https://100frames.com/32-broward-school-calendar/50%Daily2019-03-10 05:43
https://100frames.com/32-small-december-2019-calendar/50%Daily2019-03-10 05:40
https://100frames.com/30-great-adventure-calendar/50%Daily2019-03-10 05:41
https://100frames.com/33-fun-monthly-kid-calendar-printable/50%Daily2019-03-10 05:38
https://100frames.com/34-p90x-classic-workout-calendar-printable/50%Daily2019-03-10 05:35
https://100frames.com/32-september-2019-printable-calendar-vertical/50%Daily2019-03-10 05:36
https://100frames.com/30-three-month-calendar-printable-december-january-february/50%Daily2019-03-10 05:33
https://100frames.com/34-printable-calendar-blank-monday/50%Daily2019-03-10 05:30
https://100frames.com/34-printable-big-tiled-calendar/50%Daily2019-03-10 05:30
https://100frames.com/35-printable-calendar-for-june-july-august-2019/50%Daily2019-03-10 05:28
https://100frames.com/25-printable-017-monthly-calendars/50%Daily2019-03-10 05:25
https://100frames.com/32-printable-6-month-calendar-on-one-page/50%Daily2019-03-10 05:26
https://100frames.com/23-feb-and-march-2019-calendar/50%Daily2019-03-10 05:23
https://100frames.com/23-full-page-2019-printable-calendar/50%Daily2019-03-10 05:21
https://100frames.com/30-8-by-11-printable-blank-calendar/50%Daily2019-03-10 05:20
https://100frames.com/23-blank-calendar-2019-march/50%Daily2019-03-10 05:19
https://100frames.com/35-free-printable-calendar-for-month-of-november-and-december-2019/50%Daily2019-03-10 05:17
https://100frames.com/33-free-printable-customizable-yearly-calendars/50%Daily2019-03-10 05:16
https://100frames.com/31-schedule-calendar-sticky-note-printable/50%Daily2019-03-10 05:14
https://100frames.com/30-free-printable-calendars-3-months-2019/50%Daily2019-03-10 05:12
https://100frames.com/34-2019-and-2019-monthly-calendar-printable-free/50%Daily2019-03-10 05:11
https://100frames.com/30-2019-month-by-month-calendar/50%Daily2019-03-10 05:09
https://100frames.com/34-printable-july-calendar-numbers/50%Daily2019-03-10 05:06
https://100frames.com/33-july-printable-calendar-win/50%Daily2019-03-10 05:05
https://100frames.com/30-blank-september-calendar/50%Daily2019-03-10 05:04
https://100frames.com/31-cute-january-printable-calendar/50%Daily2019-03-10 05:02
https://100frames.com/19-20011-calendar-printable/50%Daily2019-03-10 05:00
https://100frames.com/32-pokemon-calendar-printable-2019/50%Daily2019-03-10 05:00
https://100frames.com/31-gingerbread-advent-calendar/50%Daily2019-03-10 04:59
https://100frames.com/32-google-calendar-2019-printable-2019-calendar-printable-printable-weekly-calendar/50%Daily2019-03-10 04:56
https://100frames.com/34-blank-2019-november-calendar/50%Daily2019-03-10 04:55
https://100frames.com/31-printable-full-year-2019-calendar/50%Daily2019-03-10 04:54
https://100frames.com/33-printable-march-calendar-for-kids/50%Daily2019-03-10 04:52
https://100frames.com/34-planahead-see-it-bigger-2019-printable-calendar/50%Daily2019-03-10 04:51
https://100frames.com/33-printable-carson-delosa-calendar/50%Daily2019-03-10 04:48
https://100frames.com/31-printable-blank-calendar-november-2019/50%Daily2019-03-10 04:46
https://100frames.com/31-catholic-calendar-of-saints/50%Daily2019-03-10 04:45
https://100frames.com/35-printable-one-week-calendar-2019/50%Daily2019-03-10 04:44
https://100frames.com/31-january-2019-printable-calendar-with-canadian-holidays/50%Daily2019-03-10 04:41
https://100frames.com/30-blank-november-monthly-calendar-2019/50%Daily2019-03-10 04:40
https://100frames.com/33-printable-february-2019-calendar-with-lines/50%Daily2019-03-10 04:38
https://100frames.com/34-printable-calendar-with-grid-lines/50%Daily2019-03-10 04:36
https://100frames.com/30-2019-federal-holiday-calendar/50%Daily2019-03-10 04:36
https://100frames.com/23-september-blank-calendar-free-printable/50%Daily2019-03-10 04:33
https://100frames.com/31-2019-free-printable-calendar-uk/50%Daily2019-03-10 04:31
https://100frames.com/34-free-legal-size-printable-calendar/50%Daily2019-03-10 04:30
https://100frames.com/35-printable-calendar-2019-2020/50%Daily2019-03-10 04:28
https://100frames.com/34-calendar-printables-pinterest/50%Daily2019-03-10 04:25
https://100frames.com/35-2019-printable-calendar-template-australia/50%Daily2019-03-10 04:26
https://100frames.com/24-september-2019-printable-color-calendar/50%Daily2019-03-10 04:23
https://100frames.com/32-free-printable-calendar/50%Daily2019-03-10 04:21
https://100frames.com/30-month-of-july-2019-printable-calendar/50%Daily2019-03-10 04:21
https://100frames.com/31-printable-appointment-scheduling-calendar/50%Daily2019-03-10 04:20
https://100frames.com/32-june-july-2019-calendar/50%Daily2019-03-10 04:19
https://100frames.com/31-kalnirnay-2019-marathi-calendar/50%Daily2019-03-10 04:16
https://100frames.com/32-april-2019-printable-calendar-horizontal/50%Daily2019-03-10 04:16
https://100frames.com/25-calendar-of-october-2019-printable/50%Daily2019-03-10 04:13
https://100frames.com/32-printable-monthly-calendar-for-whole-2019/50%Daily2019-03-10 04:11
https://100frames.com/35-adjust-print-settings-in-printable-google-calendar/50%Daily2019-03-10 04:10
https://100frames.com/30-30-day-printable-calendar-blank/50%Daily2019-03-10 04:09
https://100frames.com/33-june-2019-weekly-calendar/50%Daily2019-03-10 04:07
https://100frames.com/33-download-printable-calendar/50%Daily2019-03-10 04:06
https://100frames.com/31-printable-calendar-pdf-july-2019/50%Daily2019-03-10 04:05
https://100frames.com/34-june-2019-calendar-blank/50%Daily2019-03-10 04:02
https://100frames.com/32-may-printable-calendar-cute/50%Daily2019-03-10 04:00
https://100frames.com/31-blank-april-calendar-2019/50%Daily2019-03-10 04:00
https://100frames.com/18-printable-december-2019-calendar-with-holidays/50%Daily2019-03-10 03:57
https://100frames.com/34-homeschool-daily-calendar-printable/50%Daily2019-03-10 03:55
https://100frames.com/34-wedding-binder-printable-calendar/50%Daily2019-03-10 03:55
https://100frames.com/33-november-december-calendar/50%Daily2019-03-10 03:53
https://100frames.com/33-printable-learning-calendar/50%Daily2019-03-10 03:51
https://100frames.com/31-december-2019-desk-calendar-printable/50%Daily2019-03-10 03:50
https://100frames.com/31-october-calendar-2019-with-holidays/50%Daily2019-03-10 03:48
https://100frames.com/30-lake-geneva-calendar-of-events/50%Daily2019-03-10 03:45
https://100frames.com/33-printable-calendar-2019-16/50%Daily2019-03-10 03:46
https://100frames.com/33-business-calendar-pro/50%Daily2019-03-10 03:42
https://100frames.com/35-blank-october-calendar-2019/50%Daily2019-03-10 03:40
https://100frames.com/31-advent-calendar-craft-printables/50%Daily2019-03-10 03:40
https://100frames.com/32-tempe-high-school-calendar/50%Daily2019-03-10 03:38
https://100frames.com/32-december-printable-calendar-cute/50%Daily2019-03-10 03:35